FW5449 Weather Reports


time (UTC)temp
F
wind
direction
speed
knots
gust
knots
rain 1hr
in
rain 24hr
in
rain mn
in
humidity
%
barometer
mb
20260906150751 56 167 0.9 2.6 0.05 0.27 0.27 92 1016.0
20260906150250 56 297 0.0 0.9 0.04 0.26 0.26 92 1015.9
20260906145752 56 297 0.0 0.9 0.03 0.25 0.25 92 1015.9
20260906145252 56 297 0.0 1.7 0.03 0.25 0.25 92 1015.9
20260906144955 56 297 0.0 1.7 0.02 0.24 0.25 92 1016.0
20260906144239 56 297 0.9 2.6 0.02 0.24 0.24 92 1015.9
20260906143731 56 297 0.9 4.3 0.02 0.24 0.24 92 1016.0
20260906143231 56 274 1.7 4.3 0.01 0.23 0.23 91 1016.0
20260906142726 56 347 2.6 6.1 0.01 0.23 0.23 91 1015.9
20260906142228 56 308 3.5 7.8 0.01 0.23 0.23 91 1015.9
20260906141718 56 266 2.6 7.8 0.03 0.22 0.22 91 1015.9
20260906141216 56 318 1.7 4.3 0.08 0.22 0.22 91 1016.0
20260906140718 56 286 1.7 4.3 0.22 0.22 0.22 91 1015.9
20260906140216 56 286 1.7 4.3 0.22 0.22 0.22 91 1015.8
20260906135708 56 243 3.5 7.0 0.22 0.22 0.22 91 1015.7
20260906135207 56 229 4.3 7.8 0.22 0.22 0.22 90 1015.6
20260906134707 56 247 3.5 7.8 0.22 0.22 0.22 90 1015.5
20260906134203 56 265 1.7 7.0 0.22 0.22 0.22 90 1015.5
20260906133928 56 276 2.6 7.8 0.22 0.22 0.22 90 1015.5
20260906133201 56 262 3.5 7.8 0.22 0.22 0.22 90 1015.3
20260906132701 56 277 3.5 7.8 0.22 0.22 0.22 90 1015.1
20260906132202 56 235 4.3 8.7 0.22 0.22 0.22 90 1015.1
20260906131700 57 181 5.2 8.7 0.18 0.18 0.19 89 1015.0
20260906131159 57 183 4.3 7.8 0.14 0.14 0.14 89 1014.9
20260906130659 57 194 3.5 7.0 0.00 0.00 0.00 89 1014.9
20260906130422 57 210 2.6 6.1 0.00 0.00 0.00 89 1014.8
20260906125659 57 199 2.6 6.1 0.00 0.00 0.00 89 1014.8
20260906125410 57 237 3.5 6.1 0.00 0.00 0.00 89 1014.8
20260906124649 57 248 3.5 7.0 0.00 0.00 0.00 89 1014.9
20260906124147 57 250 3.5 7.0 0.00 0.00 0.00 88 1014.9
20260906123855 57 247 3.5 8.7 0.00 0.00 0.00 89 1015.0
20260906123124 57 247 3.5 8.7 0.00 0.00 0.00 89 1015.0
20260906122837 57 196 2.6 7.0 0.00 0.00 0.00 89 1014.9
20260906122100 57 236 2.6 3.5 0.00 0.00 0.00 89 1014.9
20260906121601 57 251 0.9 3.5 0.00 0.01 0.00 89 1014.8
20260906121324 56 244 0.9 2.6 0.00 0.01 0.00 89 1014.9
20260906120554 56 231 0.9 2.6 0.00 0.01 0.00 89 1014.9
20260906120316 57 235 0.9 2.6 0.00 0.01 0.00 88 1014.7
20260906115553 57 202 0.9 2.6 0.00 0.01 0.00 88 1014.7
20260906115051 57 210 0.9 2.6 0.00 0.01 0.00 89 1014.7
20260906114545 57 210 0.9 2.6 0.00 0.02 0.00 89 1014.8
20260906114042 57 193 0.9 2.6 0.00 0.02 0.00 89 1014.7
20260906113543 57 169 0.9 2.6 0.00 0.02 0.00 89 1014.7
20260906113037 57 169 1.7 3.5 0.00 0.02 0.00 89 1014.9
20260906112758 57 169 1.7 3.5 0.00 0.02 0.00 89 1014.8
20260906112306 57 166 1.7 3.5 0.00 0.02 0.00 89 1014.7
20260906111535 57 185 1.7 3.5 0.00 0.02 0.00 89 1014.7
20260906111031 57 192 1.7 3.5 0.00 0.02 0.00 89 1014.8
20260906110757 57 216 2.6 3.5 0.00 0.02 0.00 89 1014.8
20260906110029 57 207 2.6 3.5 0.00 0.02 0.00 89 1014.8
20260906105528 57 195 1.7 3.5 0.00 0.02 0.00 89 1014.9
20260906105029 57 196 0.9 2.6 0.00 0.02 0.00 89 1014.8
20260906105021 57 198 0.9 2.6 0.00 0.02 0.00 89 1014.8
20260906104030 57 168 1.7 4.3 0.00 0.02 0.00 88 1014.8
20260906103523 57 168 2.6 4.3 0.00 0.02 0.00 88 1014.8
20260906103014 57 161 1.7 3.5 0.00 0.02 0.00 88 1014.8
20260906102514 57 189 0.0 2.6 0.00 0.02 0.00 88 1014.8
20260906102010 57 239 0.0 0.9 0.00 0.02 0.00 88 1014.9
20260906101500 57 239 0.0 1.7 0.00 0.02 0.00 88 1014.8
20260906100948 57 239 1.7 3.5 0.00 0.02 0.00 88 1014.9
20260906100444 57 239 1.7 3.5 0.00 0.02 0.00 88 1014.9
20260906100207 57 239 0.9 2.6 0.00 0.02 0.00 88 1014.9
20260906095441 57 175 0.0 1.7 0.00 0.02 0.00 88 1014.9
20260906094941 57 175 0.0 1.7 0.00 0.02 0.00 88 1014.8
20260906094436 57 175 0.0 0.0 0.00 0.02 0.00 88 1014.8
20260906093933 57 175 0.0 0.0 0.00 0.02 0.00 88 1014.9
20260906093431 57 175 0.0 0.9 0.00 0.02 0.00 88 1014.8
20260906093359 57 175 0.0 1.7 0.00 0.02 0.00 88 1014.8
20260906092352 57 175 0.0 1.7 0.00 0.02 0.00 88 1014.7
20260906091829 57 175 0.9 2.6 0.00 0.02 0.00 88 1014.7
20260906091325 57 175 0.9 2.6 0.00 0.02 0.00 88 1014.7
20260906090822 57 175 0.9 2.6 0.00 0.02 0.00 87 1014.8
20260906090321 58 241 0.9 1.7 0.00 0.02 0.00 87 1014.8
20260906085815 58 241 0.0 1.7 0.00 0.02 0.00 87 1014.7
20260906085310 58 241 0.0 1.7 0.00 0.02 0.00 87 1014.8
20260906085026 58 241 0.0 1.7 0.00 0.02 0.00 87 1014.8
20260906084504 58 241 0.0 0.9 0.00 0.02 0.00 87 1014.9
20260906083739 58 241 0.0 0.9 0.00 0.02 0.00 87 1014.9
20260906083216 58 241 0.9 2.6 0.00 0.02 0.00 87 1014.8
20260906082709 58 241 0.9 2.6 0.00 0.02 0.00 87 1014.9
20260906082430 58 241 0.9 2.6 0.00 0.02 0.00 87 1014.9
20260906081655 58 241 0.0 2.6 0.00 0.02 0.00 87 1014.8
20260906081155 58 241 0.0 1.7 0.00 0.02 0.00 87 1014.9
20260906080919 58 241 0.0 2.6 0.00 0.02 0.00 87 1014.8
20260906080155 58 241 0.0 2.6 0.00 0.02 0.00 87 1014.9
20260906075641 58 241 0.0 0.9 0.00 0.02 0.00 87 1015.0
20260906075355 58 241 0.0 1.7 0.00 0.02 0.00 87 1014.8
20260906074820 58 241 0.0 1.7 0.00 0.02 0.00 87 1014.9
20260906074050 58 241 0.0 0.9 0.00 0.02 0.00 87 1014.8
20260906073543 58 241 0.9 2.6 0.00 0.02 0.00 87 1014.8
20260906073042 58 241 1.7 3.5 0.00 0.02 0.00 87 1014.8
20260906072545 58 252 0.9 2.6 0.00 0.02 0.00 87 1014.8
20260906072026 58 252 1.7 3.5 0.00 0.02 0.00 87 1014.8
20260906071528 58 244 1.7 3.5 0.00 0.02 0.00 86 1014.7
20260906071023 58 257 1.7 3.5 0.00 0.02 0.00 86 1014.7
20260906070522 59 266 0.9 3.5 0.00 0.02 0.00 86 1014.6
20260906070022 59 270 0.9 2.6 0.00 0.02 0.00 86 1014.6
20260906065520 59 270 0.9 2.6 0.00 0.02 0.02 86 1014.6
20260906065016 59 270 0.9 2.6 0.00 0.02 0.02 86 1014.7
20260906064511 59 270 0.9 2.6 0.00 0.02 0.02 85 1014.7
20260906064008 59 270 0.9 2.6 0.00 0.02 0.02 85 1014.7
20260906063502 59 197 0.0 2.6 0.00 0.02 0.02 85 1014.8
20260906063002 59 197 0.0 0.9 0.00 0.02 0.02 85 1014.8
20260906062455 59 197 0.0 1.7 0.00 0.02 0.02 85 1014.8
20260906062200 59 197 0.0 2.6 0.00 0.02 0.02 85 1014.8
20260906061440 60 197 0.9 2.6 0.00 0.02 0.02 85 1014.9
20260906060940 60 197 0.9 2.6 0.00 0.02 0.02 85 1014.9
20260906060440 60 197 0.9 2.6 0.00 0.02 0.02 84 1014.9
20260906055938 60 206 0.9 2.6 0.00 0.02 0.02 84 1014.9
20260906055439 60 211 0.0 1.7 0.00 0.02 0.02 84 1014.8
20260906054940 60 339 0.0 0.0 0.00 0.02 0.02 84 1014.8
20260906054436 60 339 0.0 0.0 0.00 0.02 0.02 83 1014.9
20260906053934 60 339 0.0 0.0 0.00 0.02 0.02 82 1014.9
20260906053433 61 339 0.0 0.0 0.00 0.02 0.02 81 1014.9
20260906052937 61 339 0.0 0.0 0.00 0.02 0.02 81 1014.9
20260906052428 61 339 0.0 0.0 0.00 0.02 0.02 82 1015.0
20260906051926 61 339 0.0 0.0 0.00 0.02 0.02 81 1015.0
20260906051405 61 339 0.0 0.0 0.00 0.02 0.02 81 1015.0
20260906050851 61 339 0.0 0.0 0.00 0.02 0.02 81 1015.0
20260906050342 61 339 0.0 0.0 0.00 0.02 0.02 81 1015.1
20260906045845 61 339 0.0 0.0 0.00 0.02 0.02 80 1015.1
20260906045340 62 339 0.0 0.0 0.00 0.02 0.02 80 1015.0
20260906044832 62 339 0.0 0.0 0.00 0.02 0.02 80 1015.1
20260906044319 62 339 0.0 0.9 0.00 0.02 0.02 79 1015.1
20260906043809 62 339 0.0 1.7 0.00 0.02 0.02 79 1015.2
20260906043506 62 339 0.9 2.6 0.00 0.02 0.02 79 1015.2
20260906042741 62 339 1.7 2.6 0.00 0.02 0.02 79 1015.2
20260906042240 62 332 0.9 2.6 0.00 0.02 0.02 78 1015.2
20260906041741 63 316 0.9 2.6 0.00 0.02 0.02 78 1015.2
20260906041234 63 18 0.9 1.7 0.00 0.02 0.02 77 1015.1
20260906040731 63 18 0.0 1.7 0.00 0.02 0.02 77 1015.1
20260906040222 63 18 0.0 0.9 0.00 0.02 0.02 77 1015.2
20260906035714 63 18 0.0 0.9 0.00 0.02 0.02 76 1015.1
20260906035219 64 18 0.0 1.7 0.00 0.02 0.02 76 1015.1
20260906034935 64 18 0.9 2.6 0.00 0.02 0.02 76 1015.0
20260906034153 64 18 0.9 2.6 0.00 0.02 0.02 76 1015.0
20260906033653 64 18 0.9 1.7 0.00 0.02 0.02 75 1014.9
20260906033412 64 18 0.9 2.6 0.00 0.02 0.02 75 1014.9
20260906032652 64 18 0.9 4.3 0.00 0.02 0.02 75 1014.8
20260906032152 65 351 0.9 4.3 0.00 0.02 0.02 74 1014.8
20260906031640 65 343 1.7 4.3 0.00 0.02 0.02 74 1014.5
20260906031129 65 339 2.6 5.2 0.00 0.02 0.02 73 1014.6
20260906030619 65 353 2.6 7.0 0.00 0.02 0.02 72 1014.4
20260906030328 65 317 2.6 7.0 0.00 0.02 0.02 72 1014.4
20260906025601 66 337 3.5 6.1 0.00 0.02 0.02 71 1014.4
20260906025058 66 341 2.6 6.1 0.00 0.02 0.02 71 1014.4
20260906024558 66 332 2.6 6.1 0.00 0.02 0.02 71 1014.3
20260906024058 66 247 3.5 7.8 0.00 0.02 0.02 70 1014.3
20260906023557 67 349 4.3 8.7 0.00 0.02 0.02 70 1014.3
20260906023054 67 355 4.3 8.7 0.00 0.02 0.02 69 1014.3
20260906022554 67 351 3.5 8.7 0.00 0.02 0.02 69 1014.3
20260906022054 67 340 3.5 8.7 0.00 0.02 0.02 68 1014.3
20260906021551 67 16 3.5 7.8 0.00 0.02 0.02 67 1014.4
20260906021315 68 4 4.3 7.8 0.00 0.02 0.02 67 1014.4
20260906020551 68 8 3.5 7.8 0.00 0.03 0.02 66 1014.3
20260906020050 68 355 3.5 8.7 0.00 0.03 0.02 65 1014.4
20260906020041 69 353 3.5 9.6 0.00 0.03 0.02 63 1014.3
20260906015046 69 357 4.3 9.6 0.00 0.04 0.02 63 1014.5
20260906014547 69 347 4.3 9.6 0.00 0.04 0.02 62 1014.4
20260906014046 70 346 4.3 8.7 0.00 0.04 0.02 62 1014.4
20260906013550 70 324 4.3 8.7 0.00 0.04 0.02 61 1014.5
20260906013048 71 37 3.5 8.7 0.00 0.05 0.02 59 1014.4
20260906012546 71 344 4.3 7.8 0.00 0.05 0.02 59 1014.3
20260906012045 71 17 4.3 7.8 0.00 0.05 0.02 58 1014.3
20260906011543 72 8 4.3 7.8 0.00 0.05 0.02 57 1014.2
20260906011043 72 14 3.5 7.8 0.00 0.05 0.02 57 1014.1
20260906010541 72 22 2.6 6.1 0.00 0.05 0.02 55 1014.1
20260906010041 73 357 1.7 6.1 0.00 0.05 0.02 52 1014.1
20260906005541 73 340 1.7 3.5 0.00 0.05 0.02 50 1014.2
20260906005042 74 25 2.6 5.2 0.00 0.05 0.02 50 1014.2
20260906005017 74 343 3.5 7.8 0.00 0.05 0.02 50 1014.1
20260906004032 74 312 3.5 7.8 0.00 0.05 0.02 50 1014.1
20260906003533 74 357 2.6 7.8 0.00 0.05 0.02 49 1014.1
20260906003033 74 3 2.6 7.0 0.00 0.06 0.02 48 1014.2
20260906002534 75 6 4.3 7.8 0.00 0.06 0.02 49 1014.2
20260906002028 75 318 4.3 8.7 0.00 0.07 0.02 49 1014.1
20260906001527 75 298 4.3 8.7 0.00 0.07 0.02 48 1014.1
20260906001026 75 248 3.5 7.8 0.00 0.07 0.02 45 1014.1
20260906000525 75 273 3.5 7.0 0.00 0.07 0.02 46 1014.1
20260906000024 75 345 2.6 7.0 0.00 0.08 0.02 45 1014.1
20260905235520 75 232 2.6 7.0 0.00 0.08 0.02 47 1014.0
20260905235013 75 237 3.5 7.8 0.00 0.08 0.02 45 1013.9
20260905234730 75 291 3.5 7.8 0.00 0.08 0.02 47 1014.0
20260905234013 74 281 3.5 8.7 0.00 0.08 0.02 46 1014.0
20260905233511 74 328 3.5 8.7 0.00 0.09 0.02 46 1014.1
20260905233010 74 343 2.6 6.1 0.00 0.09 0.02 45 1014.1
20260905232508 74 312 3.5 7.0 0.00 0.10 0.02 48 1014.2
20260905232446 74 238 2.6 7.0 0.00 0.11 0.02 48 1014.4
20260905231500 74 249 3.5 7.0 0.00 0.13 0.02 48 1014.6
20260905230957 74 230 3.5 7.0 0.00 0.14 0.02 49 1014.6
20260905230457 75 286 2.6 7.0 0.00 0.15 0.02 48 1014.6
20260905225958 75 281 1.7 5.2 0.00 0.16 0.02 48 1014.6
20260905225455 76 328 2.6 7.8 0.00 0.16 0.02 47 1014.7
20260905224954 76 316 4.3 7.8 0.00 0.16 0.02 47 1014.7
20260905224457 76 12 4.3 7.8 0.00 0.16 0.02 46 1014.7
20260905223956 76 307 4.3 7.8 0.00 0.17 0.02 47 1014.7
20260905223453 76 305 3.5 7.8 0.00 0.17 0.02 47 1014.7
20260905223215 76 245 3.5 9.6 0.00 0.17 0.02 50 1014.8
20260905222456 76 240 4.3 10.4 0.00 0.17 0.02 48 1014.8
20260905221950 77 82 3.5 10.4 0.00 0.18 0.02 52 1014.8
20260905221450 76 241 3.5 8.7 0.00 0.19 0.02 51 1014.8
20260905220949 76 263 3.5 8.7 0.00 0.20 0.02 51 1014.7
20260905220447 76 286 2.6 7.0 0.00 0.21 0.02 50 1014.8
20260905215952 76 355 2.6 7.8 0.00 0.22 0.02 54 1014.7
20260905215447 76 234 3.5 7.8 0.00 0.22 0.02 54 1014.7
20260905215206 75 320 4.3 8.7 0.00 0.23 0.02 53 1014.8
20260905214445 75 228 4.3 8.7 0.00 0.23 0.02 51 1014.8
20260905213945 75 230 2.6 7.0 0.00 0.24 0.02 53 1014.8
20260905213443 75 247 0.9 6.1 0.00 0.26 0.02 55 1014.9
20260905213210 74 38 1.7 6.1 0.00 0.28 0.02 52 1015.0
20260905212447 74 14 3.5 7.0 0.00 0.29 0.02 57 1015.0
20260905211946 74 348 2.6 7.0 0.00 0.30 0.02 54 1015.1
20260905211443 74 247 2.6 7.0 0.00 0.31 0.02 55 1015.2
20260905210943 74 174 3.5 7.0 0.00 0.31 0.02 53 1015.2
20260905210704 73 242 2.6 7.0 0.00 0.32 0.02 58 1015.4
20260905205945 73 323 1.7 4.3 0.00 0.32 0.02 59 1015.4
20260905205445 72 235 2.6 7.8 0.00 0.33 0.02 60 1015.6
20260905204934 72 262 2.6 7.8 0.00 0.33 0.02 60 1015.6
20260905204429 72 251 2.6 4.3 0.00 0.34 0.02 59 1015.7
20260905203929 72 252 1.7 4.3 0.00 0.35 0.02 59 1015.7
20260905203432 72 274 0.9 3.5 0.00 0.36 0.02 60 1015.5
20260905202925 72 37 0.9 2.6 0.00 0.37 0.02 56 1015.6
20260905202645 73 128 1.7 4.3 0.00 0.38 0.02 56 1015.6
20260905201925 73 108 1.7 7.0 0.00 0.38 0.02 56 1015.7
20260905201423 73 155 0.9 7.0 0.00 0.39 0.02 58 1015.6
20260905200917 73 178 1.7 4.3 0.00 0.39 0.02 57 1015.7
20260905200413 72 301 2.6 6.1 0.00 0.39 0.02 60 1015.7
20260905195913 72 352 1.7 6.1 0.00 0.39 0.02 64 1015.7
20260905195409 72 325 1.7 6.1 0.00 0.40 0.02 62 1015.7
20260905194907 72 238 1.7 7.0 0.00 0.40 0.02 60 1015.8
20260905194403 72 250 1.7 7.0 0.00 0.40 0.02 61 1015.9
20260905193906 71 328 1.7 4.3 0.00 0.40 0.02 64 1016.0
20260905193353 71 124 1.7 6.1 0.00 0.40 0.02 63 1016.2
20260905192839 70 166 1.7 5.2 0.00 0.40 0.02 62 1016.1
20260905191839 69 131 1.7 4.3 0.00 0.40 0.02 64 1016.3
20260905191335 69 241 0.9 3.5 0.00 0.40 0.02 66 1016.2
20260905190823 69 198 1.7 4.3 0.00 0.40 0.02 68 1016.2
20260905190322 68 310 2.6 4.3 0.00 0.40 0.02 69 1016.3
20260905185819 68 308 1.7 4.3 0.00 0.40 0.02 72 1016.3
20260905185543 68 281 0.9 4.3 0.00 0.40 0.02 71 1016.3
20260905184817 68 295 0.9 3.5 0.00 0.40 0.02 73 1016.3
20260905184538 67 27 0.9 3.5 0.00 0.40 0.02 71 1016.4
20260905183811 67 105 0.9 3.5 0.00 0.40 0.02 72 1016.4
20260905183307 67 266 0.9 2.6 0.00 0.40 0.02 75 1016.4
20260905182809 66 123 0.9 5.2 0.00 0.40 0.02 75 1016.4
20260905182309 66 99 0.9 5.2 0.00 0.40 0.02 75 1016.4
20260905181804 65 33 1.7 7.0 0.00 0.40 0.02 79 1016.5
20260905181525 65 33 2.6 7.0 0.00 0.40 0.02 75 1016.5
20260905180800 66 240 0.9 4.3 0.00 0.40 0.02 76 1016.5
20260905180258 65 69 0.9 3.5 0.00 0.40 0.02 78 1016.4
20260905180025 65 335 0.9 3.5 0.00 0.40 0.02 79 1016.4
20260905175252 64 317 0.9 2.6 0.00 0.40 0.02 78 1016.5
20260905174747 64 48 1.7 7.0 0.00 0.40 0.02 79 1016.6
20260905174244 64 341 1.7 7.0 0.00 0.40 0.02 81 1016.7
20260905173737 64 299 0.9 3.5 0.00 0.40 0.02 79 1016.7
20260905173236 64 270 0.9 3.5 0.00 0.40 0.02 79 1016.7
20260905172954 64 255 0.9 2.6 0.00 0.40 0.02 77 1016.7
20260905172234 64 205 0.9 2.6 0.00 0.41 0.02 77 1016.7
20260905171728 64 205 0.9 2.6 0.00 0.41 0.02 78 1016.6
20260905171711 64 251 0.9 2.6 0.00 0.41 0.02 78 1016.7
20260905170727 63 167 1.7 4.3 0.00 0.41 0.02 78 1016.5
20260905170226 63 128 1.7 5.2 0.00 0.41 0.02 80 1016.6
20260905165721 62 129 1.7 5.2 0.00 0.41 0.02 81 1016.6
20260905165220 62 149 2.6 6.1 0.00 0.41 0.02 83 1016.5
20260905164722 61 158 3.5 6.1 0.00 0.42 0.02 83 1016.4
20260905164212 61 148 2.6 6.1 0.00 0.42 0.02 84 1016.4
20260905163708 60 141 2.6 7.8 0.00 0.43 0.02 84 1016.3
20260905163210 60 116 3.5 7.8 0.00 0.44 0.02 85 1016.4
20260905162708 59 104 3.5 7.8 0.00 0.45 0.02 87 1016.3
20260905162209 59 156 3.5 7.0 0.00 0.46 0.02 87 1016.4
20260905161708 58 176 4.3 7.0 0.00 0.47 0.02 87 1016.4
20260905161206 58 102 4.3 7.0 0.00 0.49 0.02 88 1016.3
20260905160708 58 97 4.3 7.8 0.00 0.50 0.02 89 1016.4
20260905160205 57 81 4.3 9.6 0.00 0.50 0.02 89 1016.4
20260905155705 57 85 3.5 9.6 0.00 0.50 0.02 91 1016.5
20260905155204 57 106 2.6 6.1 0.00 0.50 0.02 90 1016.5
20260905154931 56 121 2.6 7.0 0.00 0.51 0.02 90 1016.6
20260905154206 56 120 3.5 7.0 0.00 0.51 0.02 91 1016.5
20260905153702 56 85 3.5 7.8 0.00 0.51 0.02 91 1016.6
20260905153201 56 109 2.6 7.8 0.00 0.51 0.02 91 1016.7
20260905152707 55 130 3.5 7.0 0.00 0.51 0.02 92 1016.7
20260905152702 56 101 2.6 7.0 0.00 0.51 0.02 92 1016.7
20260905151700 55 146 2.6 6.1 0.00 0.51 0.02 93 1016.7
20260905151201 55 124 2.6 6.1 0.00 0.51 0.02 93 1016.7